Waarnemingen

Advertentie
Mijn weer
Ornskoldsvik Airport, Zweden (2267): temperatuur & dauwpunt: 20.05.2019 15:00:00 - 26.05.2019 15:00:00 (CEST)Ornskoldsvik Airport, Zweden (2267): windsnelheid: 20.05.2019 15:00:00 - 26.05.2019 15:00:00 (CEST)Ornskoldsvik Airport, Zweden (2267): windrichting: 20.05.2019 15:00:00 - 26.05.2019 15:00:00 (CEST)Ornskoldsvik Airport, Zweden (2267): luchtdruk: 20.05.2019 15:00:00 - 26.05.2019 15:00:00 (CEST)Ornskoldsvik Airport, Zweden (2267): zicht: 20.05.2019 15:00:00 - 26.05.2019 15:00:00 (CEST)
Datum & Tijd tt [°C] td [°C] ff [km/u] ff [kn] dd ppp [hPa] vv [km]
26.05.2019 15:00:00 12,1 2,0 16 9 O 996,0 10
26.05.2019 14:00:00 12,6 0,7 18 10 O 996,1 10
26.05.2019 13:00:00 12,1 0,8 24 13 O 996,2 10
26.05.2019 12:00:00 11,9 1,5 13 7 O 996,5 10
26.05.2019 11:00:00 10,8 3,6 13 7 O 997,1 10
26.05.2019 10:00:00 10,2 3,7 15 8 O 997,6 10
26.05.2019 09:00:00 9,3 4,1 13 7 O 997,9 10
26.05.2019 08:00:00 8,1 4,5 8 4 O 998,2 10
26.05.2019 07:00:00 7,1 6,0 5 3 NO 998,5 10
26.05.2019 06:00:00 6,1 6,0 5 3 NNO 998,9 10
26.05.2019 05:00:00 5,5 5,4 4 2 Z 999,5 10
26.05.2019 04:00:00 5,2 5,1 5 3 N 999,6 0,4
26.05.2019 03:00:00 5,6 5,3 5 3 WNW 1000,1 0,2
26.05.2019 02:00:00 5,8 5,5 4 2 ZW 1000,6 0,1
26.05.2019 01:00:00 6,2 5,6 5 3 ZW 1001,3 0,9
26.05.2019 00:00:00 5,9 5,2 4 2 ZW 1001,7 10
25.05.2019 23:00:00 6,1 5,1 4 2 ZW 1002,2 10
25.05.2019 22:00:00 6,8 5,3 9 5 ZW 1002,3 10
25.05.2019 21:00:00 7,6 4,9 8 4 ZZW 1002,5 10
25.05.2019 20:00:00 8,4 5,0 8 4 ZZW 1002,8 10
25.05.2019 19:00:00 8,8 5,0 9 5 Z 1003,0 10
25.05.2019 18:00:00 10,2 3,0 5 3 NNW 1003,3 10
25.05.2019 17:00:00 10,1 2,7 8 4 N 1003,5 10
25.05.2019 16:00:00 10,5 3,1 11 6 NNO 1003,5 10
25.05.2019 15:00:00 10,2 3,2 9 5 N 1003,7 10
25.05.2019 14:00:00 10,7 3,5 13 7 NW 1003,8 10
25.05.2019 13:00:00 10,5 3,5 11 6 N 1004,0 10
25.05.2019 12:00:00 9,6 4,2 11 6 N 1004,0 10
25.05.2019 11:00:00 9,1 4,3 13 7 NNW 1004,1 10
25.05.2019 10:00:00 8,1 3,9 13 7 N 1004,1 10
25.05.2019 09:00:00 7,1 4,4 11 6 N 1004,3 10
25.05.2019 08:00:00 6,3 4,6 9 5 N 1004,6 10
25.05.2019 07:00:00 5,8 4,8 5 3 NNO 1005,0 10
25.05.2019 06:00:00 5,5 4,5 8 4 NO 1005,1 10
25.05.2019 05:00:00 5,6 4,9 5 3 NO 1005,3 10
25.05.2019 04:00:00 5,6 4,9 8 4 NO 1005,6 10
25.05.2019 03:00:00 6,1 5,5 9 5 ONO 1005,8 10
25.05.2019 02:00:00 6,6 6,0 8 4 ONO 1006,1 10
25.05.2019 01:00:00 6,8 6,4 4 2 NO 1006,4 8
25.05.2019 00:00:00 6,8 6,4 4 2 NO 1006,5 8
24.05.2019 23:00:00 6,8 6,2 5 3 NNO 1006,5 5
24.05.2019 22:00:00 7,0 6,4 5 3 ZO 1007,0 10
24.05.2019 21:00:00 7,2 6,5 4 2 - 1007,2 9
24.05.2019 20:00:00 7,2 6,5 5 3 ZO 1007,5 10
24.05.2019 19:00:00 7,5 6,8 9 5 ZZO 1007,7 10
24.05.2019 18:00:00 7,9 6,8 4 2 ZZO 1007,9 10
24.05.2019 17:00:00 7,8 6,7 5 3 ZZO 1007,9 10
24.05.2019 16:00:00 7,6 6,7 9 5 Z 1008,1 7
24.05.2019 15:00:00 8,2 7,0 4 2 - 1008,1 10
24.05.2019 14:00:00 8,8 5,4 4 2 - 1008,3 10
24.05.2019 13:00:00 8,3 5,1 5 3 - 1008,4 10
24.05.2019 12:00:00 8,2 5,1 5 3 N 1008,2 10
24.05.2019 11:00:00 7,5 6,0 8 4 N 1008,3 10
24.05.2019 10:00:00 7,1 5,9 8 4 N 1008,4 5
24.05.2019 09:00:00 6,5 5,4 8 4 N 1008,1 10
24.05.2019 08:00:00 5,9 5,3 11 6 N 1008,0 5
24.05.2019 07:00:00 5,7 5,1 9 5 N 1008,2 2,4
24.05.2019 06:00:00 5,4 5,0 9 5 N 1008,3 1,8
24.05.2019 05:00:00 5,2 4,8 11 6 N 1008,6 2,3
24.05.2019 04:00:00 5,4 4,8 11 6 N 1008,9 2,8
24.05.2019 03:00:00 5,4 4,7 9 5 NNO 1009,1 10
24.05.2019 02:00:00 5,3 4,7 11 6 NNO 1009,6 10
24.05.2019 01:00:00 5,1 4,5 5 3 N 1010,7 2,9
24.05.2019 00:00:00 4,8 4,1 11 6 NO 1011,1 4,0
23.05.2019 23:00:00 4,5 3,8 11 6 NO 1011,5 6
23.05.2019 22:00:00 4,4 3,7 13 7 NO 1012,0 3,9
23.05.2019 21:00:00 4,2 3,5 11 6 NO 1012,3 3,0
23.05.2019 20:00:00 4,3 3,4 11 6 NNO 1012,6 10
23.05.2019 19:00:00 4,1 3,1 15 8 NO 1012,7 7
23.05.2019 18:00:00 4,3 3,3 16 9 NO 1013,3 10
23.05.2019 17:00:00 4,7 3,4 15 8 ONO 1013,9 10
23.05.2019 16:00:00 4,6 3,3 15 8 NO 1014,5 10
23.05.2019 15:00:00 4,5 3,3 13 7 NO 1014,5 8
23.05.2019 14:00:00 4,5 3,2 15 8 NO 1015,0 10
23.05.2019 13:00:00 4,6 3,4 13 7 NO 1015,1 7
23.05.2019 12:00:00 4,4 3,1 15 8 NO 1015,1 10
23.05.2019 11:00:00 4,3 3,0 15 8 NO 1015,3 10
23.05.2019 10:00:00 3,8 2,5 13 7 NO 1015,6 10
23.05.2019 09:00:00 3,6 2,0 11 6 NNO 1015,4 9
23.05.2019 08:00:00 3,7 2,2 16 9 NO 1015,6 10
23.05.2019 07:00:00 3,9 2,6 15 8 NO 1015,6 10
23.05.2019 06:00:00 4,3 2,5 13 7 NNO 1015,4 10
23.05.2019 05:00:00 4,8 2,8 15 8 NO 1015,4 10
23.05.2019 04:00:00 5,3 3,3 13 7 NNO 1015,2 10
23.05.2019 03:00:00 5,6 2,9 15 8 NNO 1015,0 10
23.05.2019 02:00:00 6,0 3,5 13 7 NNO 1015,2 10
23.05.2019 01:00:00 7,9 1,7 16 9 NNO 1015,3 10
23.05.2019 00:00:00 8,3 1,7 15 8 NO 1014,7 10
22.05.2019 23:00:00 9,1 2,9 13 7 NO 1014,4 10
22.05.2019 22:00:00 9,5 4,1 18 10 ONO 1014,2 10
22.05.2019 21:00:00 9,5 5,5 9 5 O 1013,6 10
22.05.2019 20:00:00 10,1 5,7 18 10 O 1013,3 10
22.05.2019 19:00:00 12,1 6,4 18 10 OZO 1013,2 10
22.05.2019 18:00:00 14,2 7,5 15 8 OZO 1012,9 10
22.05.2019 17:00:00 14,8 7,6 11 6 ZO 1012,9 10
22.05.2019 16:00:00 15,3 7,6 21 11 OZO 1013,0 10
22.05.2019 15:00:00 17,1 7,7 16 9 ZO 1013,0 10
22.05.2019 14:00:00 19,0 8,0 15 8 OZO 1012,9 10
22.05.2019 13:00:00 19,0 8,3 18 10 ZO 1012,8 10
22.05.2019 12:00:00 19,8 8,5 18 10 O 1012,8 10
22.05.2019 11:00:00 20,9 6,4 13 7 NO 1012,7 10
22.05.2019 10:00:00 19,7 7,1 15 8 N 1012,9 10
22.05.2019 09:00:00 18,2 7,9 18 10 NNO 1012,9 10
22.05.2019 08:00:00 17,1 8,0 15 8 N 1013,0 10
22.05.2019 07:00:00 15,7 8,9 13 7 N 1013,3 10
22.05.2019 06:00:00 13,8 8,6 11 6 NNO 1013,5 10
22.05.2019 05:00:00 11,5 8,4 8 4 NNW 1013,8 10
22.05.2019 04:00:00 10,5 7,7 5 3 NNW 1014,2 10
22.05.2019 03:00:00 10,4 8,3 8 4 NNW 1014,3 10
22.05.2019 02:00:00 8,8 7,6 4 2 NNW 1014,5 10
22.05.2019 01:00:00 10,0 8,4 8 4 NW 1014,6 10
22.05.2019 00:00:00 9,2 7,3 5 3 NW 1014,8 10
21.05.2019 23:00:00 9,5 7,8 0 0 N 1014,9 10
21.05.2019 22:00:00 11,2 7,5 2 1 O 1014,8 10
21.05.2019 21:00:00 12,6 8,3 4 2 - 1014,7 10
21.05.2019 20:00:00 14,4 8,6 8 4 OZO 1014,4 10
21.05.2019 19:00:00 16,2 8,9 11 6 ZO 1014,3 10
21.05.2019 18:00:00 17,2 9,1 13 7 O 1014,1 10
21.05.2019 17:00:00 17,8 9,2 13 7 OZO 1014,1 10
21.05.2019 16:00:00 18,1 9,2 15 8 ZO 1014,0 10
21.05.2019 15:00:00 18,6 8,8 15 8 OZO 1014,3 10
21.05.2019 14:00:00 18,0 9,1 16 9 OZO 1014,5 10
21.05.2019 13:00:00 17,6 9,5 18 10 OZO 1014,7 10
21.05.2019 12:00:00 18,2 9,8 16 9 OZO 1014,7 10
21.05.2019 11:00:00 19,1 10,4 15 8 OZO 1014,3 10
21.05.2019 10:00:00 18,4 10,5 9 5 OZO 1014,1 10
21.05.2019 09:00:00 18,1 10,7 8 4 O 1014,0 10
21.05.2019 08:00:00 16,4 10,5 8 4 NO 1014,3 10
21.05.2019 07:00:00 14,5 10,3 5 3 NO 1014,3 10
21.05.2019 06:00:00 12,8 10,2 0 0 N 1014,2 10
21.05.2019 05:00:00 9,8 8,7 0 0 N 1014,2 10
21.05.2019 04:00:00 9,3 8,7 5 3 NNW 1014,2 10
21.05.2019 03:00:00 8,6 7,7 4 2 NNW 1014,2 10
21.05.2019 02:00:00 9,6 8,5 4 2 NNO 1013,9 10
21.05.2019 01:00:00 9,8 8,2 0 0 N 1013,8 10
21.05.2019 00:00:00 10,8 8,9 0 0 N 1013,8 10
20.05.2019 23:00:00 11,8 9,5 0 0 N 1013,8 10
20.05.2019 22:00:00 13,7 9,3 4 2 - 1013,5 10
20.05.2019 21:00:00 16,0 9,7 5 3 ZZW 1013,1 10
20.05.2019 20:00:00 17,5 10,4 5 3 Z 1013,0 10
20.05.2019 19:00:00 17,8 9,9 8 4 ZZO 1012,9 10
20.05.2019 18:00:00 17,6 9,5 11 6 ZO 1013,2 10
20.05.2019 17:00:00 18,9 9,9 18 10 ZZO 1013,0 10
20.05.2019 16:00:00 20,3 9,8 21 11 ZO 1013,0 10
20.05.2019 15:00:00 22,1 8,9 11 6 ZZO 1013,0 10

tt = temperatuur
td = dauwpunt
ff = windsnelheid
dd = windrichting
ppp = luchtdruk
vv = zicht

Weerstations in de omgeving